Regional Weather Roundup
Issued by NWS Grand Forks, ND

Home | Current Version | Previous Version | Text Only | Print | Product List | Glossary Off
Versions: 1 2 3 4 5 6 7 8 9 10 11 12 13 14 15 16 17 18 19 20 21 22 23 24 25 26 27 28 29 30 31 32 33 34 35 36 37 38 39 40 41 42 43 44 45 46 47 48 49 50

000
ASUS43 KFGF 250510
RWRFGF
NATIONAL WEATHER SERVICE EASTERN NORTH DAKOTA/GRAND FORKS ND
1200 AM CDT MON MAY 25 2015

 **SATELLITE DATA USED TO AUGMENT SKY COVER AT AUTOMATED STATIONS**
 *****  WEATHER ACROSS EASTERN NORTH DAKOTA  *****

CITY           SKY/WX    TMP DP  RH WIND       PRES   REMARKS
GRAND FORKS    CLOUDY    57  52  83 N3        29.86S
GRAND FRKS AFB CLOUDY    56  52  84 N1        29.87S
GRAND FRKS NWS   N/A     59 N/A N/A SE1         N/A
DEVILS LAKE    CLOUDY    59  48  67 CALM      29.89S
FARGO          CLOUDY    62  54  74 SE5       29.85F
WAHPETON ARPT  CLOUDY    57  54  88 E7        29.84S
$$

 ***** WEATHER ACROSS CENTRAL AND WESTERN NORTH DAKOTA  *****

CITY           SKY/WX    TMP DP  RH WIND       PRES   REMARKS
BISMARCK       CLOUDY    57  55  93 CALM      29.90F
MINOT          MOCLDY    58  46  64 CALM      29.90S
JAMESTOWN      CLOUDY    57  55  93 NW5       29.87S
MINOT AFB      MOCLDY    58  49  72 CALM      29.90S
GARRISON         N/A     63  51  65 NE3       29.90S
WILLISTON      PTCLDY    49  44  83 CALM      29.91F
DICKINSON      CLOUDY    57  48  72 N3        29.89F
HETTINGER      CLOUDY    56  49  77 NE6       29.90S
$$

 *****  OTHER AIRPORT OBSERVATIONS IN OUR AREA  *****

CITY           SKY/WX    TMP DP  RH WIND       PRES   REMARKS
WALHALLA         N/A     54  54 100 SW3       29.89S
GRAFTON AIRPOR FAIR      61  50  67 CALM      29.88S
VALLEY CITY AR CLOUDY    59  59 100 CALM      29.87S
CANDO          FAIR      57  52  82 N3        29.91S
CAVALIER APRT  FAIR      59  48  67 NW5       29.88S
GWINNER        NOT AVBL
ROLLA          MOCLDY    54  43  66 W5        29.93S
 ***** THE ABOVE OBSERVATIONS ARE NON NWS ARE NOT QUALITY
       CONTROLLED AND MAY MIS-REPORT RAIN FOR SNOW...
$$

  *****  WEATHER ACROSS NORTHERN MINNESOTA  *****

CITY           SKY/WX    TMP DP  RH WIND       PRES   REMARKS
FLAG ISLAND    MOCLDY    61  48  63 CALM      29.88S
WARROAD        CLOUDY    57  52  82 NW5       29.88F
ROSEAU         CLOUDY    59  52  77 NW3       29.88F
HALLOCK        MOCLDY    57  48  72 SE5       29.87S
THF RVR FALLS  CLOUDY    63  48  59 CALM      29.88S
BAUDETTE       CLOUDY    57  52  83 S3        29.88F
WASKISH        CLOUDY    57  55  94 CALM      29.89S
CROOKSTON      CLOUDY    63  50  63 E5        29.87F
STEPHEN NDAWN    N/A     61  48  63 SE3         N/A
GREENBUSH NDAW   N/A     59  55  88 N2          N/A
$$
  *****  WEATHER ACROSS CENTRAL AND WEST MINNESOTA  *****

CITY           SKY/WX    TMP DP  RH WIND       PRES   REMARKS
FOSSTON        CLOUDY    55  45  67 CALM      29.88F
BEMIDJI        CLOUDY    58  51  76 E3        29.88F
PARK RAPIDS    CLOUDY    59  53  80 NE6       29.87F
ELBOW LAKE     RAIN      57  56  98 E9        29.82F
WADENA         LGT RAIN  55  54  94 NE6       29.85F
DETROIT LAKES  RAIN      59  54  82 CALM      29.88F
MOORHEAD       CLOUDY    63  54  72 SE5       29.86F
FERGUS FALLS   DRIZZLE   57  57 100 E8        29.84F
MORRIS MN      LGT RAIN  57  57 100 NE8       29.80F
STAPLES        RAIN      55  55 100 NE5       29.85F
$$
  *****  WEATHER ELSEWHERE ACROSS MINNESOTA  *****

CITY           SKY/WX    TMP DP  RH WIND       PRES   REMARKS
DULUTH         LGT RAIN  58  55  90 E9        29.90F
INTRNTL FALLS  CLOUDY    56  50  80 CALM      29.88F
ELY            CLOUDY    61  46  59 S3        29.91F
CLOQUET        LGT RAIN  57  55  94 E6        29.89S
WHEATON        CLOUDY    55  55 100 NE6       29.83F
BRAINERD       LGT RAIN  57  56  96 NE7       29.85F FOG
HIBBING        CLOUDY    56  50  80 CALM      29.90F
ALEXANDRIA     LGT RAIN  57  55  93 NE10      29.83F
SAINT CLOUD    LGT RAIN  57  57 100 E6        29.80F FOG
MINNEAPOLIS    LGT RAIN  58  57  97 E9        29.78F FOG
$$

  *****  WEATHER ACROSS SOUTH DAKOTA  *****

CITY           SKY/WX    TMP DP  RH WIND       PRES   REMARKS
SIOUX FALLS    CLOUDY    59  58  96 NW5       29.77R
BROOKINGS      CLOUDY    57  55  94 E3        29.80R
WATERTOWN      LGT RAIN  57  55  93 E10       29.79F
HURON          CLOUDY    58  57  97 NE5       29.79F
SISSETON         N/A     57  57 100 E9        29.81F
ABERDEEN       RAIN      58  56  93 N6        29.83F FOG
MITCHELL       CLOUDY    60  59  96 N3        29.80S FOG
PIERRE         CLOUDY    57  56  96 E5        29.80F FOG
MOBRIDGE       LGT RAIN  58  58 100 NE9       29.83F
RAPID CITY     CLOUDY    53  52  96 N9        29.87F
$$

  *****  SOME WEATHER IN NEARBY STATES *****

CITY           SKY/WX    TMP DP  RH WIND       PRES   REMARKS
GLASGOW MT     PTCLDY    58  42  55 SE5       29.91F
GREAT FALLS MT CLEAR     51  43  74 SE3       29.96F
CHEYENNE WY    MOCLDY    45  38  76 NW6       29.90R
SCOTTSBLUFF NE CLOUDY    53  50  89 S6        29.85R
OMAHA NE       CLOUDY    66  61  84 SW6       29.78S
DES MOINES IA  CLOUDY    65  62  90 S6        29.78S
DAVENPORT IA   CLOUDY    68  64  87 S12       29.84F
CHICAGO IL     MOCLDY    68  62  81 S9        29.91S
EAU CLAIRE WI  CLOUDY    57  55  93 VRB6      29.82F
LA CROSSE WI   HVY RAIN  60  57  89 E3        29.79F FOG
$$

  *****  SOME NATIONAL WEATHER *****

CITY           SKY/WX    TMP DP  RH WIND       PRES   REMARKS
LA GUARDIA NY  CLOUDY    68  49  50 S10       30.25S
RALEIGH NC     PTCLDY    68  57  68 S7        30.34S
ATLANTA GA     PTCLDY    72  57  59 SE10      30.26R
NEW ORLEANS LA CLOUDY    78  70  76 SE10      30.04F
OKLAHOMA CITY  CLOUDY    64  63  96 SE15      29.87F
ALBUQUERQUE NM LGT RAIN  55  42  61 W14G22    30.02R
SALT LAKE CITY TSTM      54  49  83 W3        29.93R
LOS ANGELES CA PTCLDY    59  54  83 W9        29.98R
BOISE ID       CLEAR     60  45  57 SE10      29.86R
SEATTLE WA     MOCLDY    57  50  77 S6        30.02S
$$

*** WEATHER ACROSS MANITOBA...SASKATCHEWAN AND ONTARIO ***
                ***ONTARIO***

CITY           SKY/WX    TMP DP  RH WIND       PRES   REMARKS
GERALDTON      PTCLDY    54  43  66 CALM      29.93S
THUNDER BAY    NOT AVBL
SIOUX LOOKOUT  CLEAR     48  43  81 E3        29.90F
TORONTO        LGT RAIN  70  50  49 NW3       30.14S
BIG TROUT LK   CLEAR     45  36  70 NE5       29.95S
PICKLE LAKE    NOT AVBL
DRYDEN         CLEAR     61  46  59 CALM      29.89F
KENORA         PTCLDY    68  46  45 NW6       29.90F
$$
                *** MANITOBA***

CITY           SKY/WX    TMP DP  RH WIND       PRES   REMARKS
BRANDON        PTCLDY    55  43  62 W3        29.91S
DAUPHIN        PTCLDY    61  43  51 CALM      29.86F
ISLAND LAKE    CLEAR     50  39  66 VRB2      29.88S
PILOT MOUND      N/A     59  43  55 SW2         N/A
THE PAS        CLEAR     59  43  55 SE5       29.87F
THOMPSON       PTCLDY    50  36  57 NE7       29.90F
WINNIPEG       PTCLDY    66  43  42 S6        29.89S
LYNN LAKE      CLEAR     48  36  61 E5        29.91F
CHURCHILL      PTCLDY    28  25  86 E2        30.04S
GILLAM         PTCLDY    37  32  81 E6        29.99S
$$
                ***SASKATCHEWAN***

CITY           SKY/WX    TMP DP  RH WIND       PRES   REMARKS
ESTEVAN        PTCLDY    55  46  71 S5        29.92S
KINDERSLEY     PTCLDY    63  30  29 S2        29.92F
LLOYDMINSTER   MOCLDY    61  36  39 SE6       29.91F
PRINCE ALBERT  PTCLDY    55  45  67 W5        29.88S
REGINA         PTCLDY    59  39  47 VRB2      29.90F
YORKTON        CLEAR     57  45  62 S5        29.88F HAZE
N. BATTLEFORD  CLEAR     52  41  66 SE2       29.92F
LA RONGE       PTCLDY    52  39  62 CALM      29.85F
SASKATOON      PTCLDY    63  39  42 NE5       29.90F
SWIFT CURRENT  MOCLDY    64  30  27 SE6       29.93F
$$
NOTE: THESE ARE AUTOMATED STATIONS WITH LIMITED QUALITY CONTROL
      "FAIR" INDICATES FEW OR NO CLOUDS BELOW 12,000 FEET WITH NO
      SIGNIFICANT WEATHER AND/OR OBSTRUCTIONS TO VISIBILITY.
      SKY/WX - SKY CONDITION AND SIGNIFICANT WEATHER.
      TMP - AIR TEMPERATURE.    DP   - DEWPOINT TEMPERATURE.
      RH  - RELATIVE HUMIDITY.  PRES - PRESSURE.
      HX  - HEAT INDEX.         WCI  - WIND CHILL INDEX.
$


USA.gov is the U.S. government's official web portal to all federal, state and local government web resources and services.